Location: Austin
(30.3000°N, 97.7500°W)
Time: 06:37:27
(UTC-05:00)

Cosmos 1898 Rocket - Pass Details

Date: 16 June 2025
Orbit: 750 x 779 km, 74.0° (Epoch: 07 July)

Event Time Altitude Azimuth Distance (km) Brightness Sun altitude
Exits shadow 04:53:44 14° 174° (S) 2,012 5.3 -17.7°
Maximum altitude 04:58:00 49° 102° (ESE) 957 4.2 -17.0°
Drops below altitude 10° 05:02:56 10° 28° (NNE) 2,271 7.0 -16.2°
Sets 05:05:21 0° 23° (NNE) 3,200 7.9 -15.8°
